Flag for Norway Weather past 2 weeks in Flekkefjord, Norway

Now
59 °F

Cool.


Feels Like: 58 °F
Forecast: 57 / 64 °F
Wind: 9 mph from East

Location: Lista Fyr

Current Time: Sep 16, 2014 at 10:15:16 AM

Latest Report: Sep 16, 2014 at 9:00 AM


Visibility: N/A

Pressure: 30.26 "Hg

Humidity: 69%

Dew point: 49 °F

Location of FlekkefjordLocation

Historic Weather in Flekkefjord — Graph

°F

Flekkefjord temperature yesterday

Maximum temperature yesterday: 66 °F (at 4:00 PM)
Minimum temperature yesterday: 57 °F (at 1:00 AM)
Average temperature yesterday: 61 °F

Past Weeks' High & Low Weather Summary

 TemperatureHumidityPressure
High69 °F (Sep 14, 2:00 PM)96% (Sep 4, 5:00 AM)30.45 "Hg (Sep 4, 5:00 AM)
Low48 °F (Sep 8, 3:00 AM)43% (Sep 15, 4:00 PM)29.80 "Hg (Sep 8, 9:00 AM)
Average59 °F79%30.17 "Hg
* Reported Sep 1 9:00 AM — Sep 16 9:00 AM, Flekkefjord, Weather by CustomWeather, © 2014

Note: Actual official high and low records may vary slightly from our data, if they occured in-between our weather recording intervals... More about our weather records

Advertising

Flekkefjord weather history for previous 24 hours

 ConditionsComfort  
Time TempWeatherWind HumidityBarometerVisibility
9:00 AM
Sep 16
59 °FCool.9 mph69%30.26 "HgN/A
8:00 AM58 °FPassing clouds.9 mph72%30.26 "Hg12 mi
7:00 AM58 °FCool.9 mph76%30.26 "HgN/A
6:00 AM58 °FCool.8 mph76%30.27 "HgN/A
5:00 AM58 °FCool.8 mph74%30.27 "HgN/A
4:00 AM59 °FCool.8 mph71%30.27 "HgN/A
3:00 AM59 °FCool.7 mph69%30.28 "HgN/A
2:00 AM60 °FCool.8 mph66%30.27 "HgN/A
1:00 AM60 °FCool.8 mph65%30.28 "HgN/A
12:00 AM60 °FCool.9 mph62%30.28 "HgN/A
11:00 PM
Sep 15
60 °FCool.8 mph60%30.28 "HgN/A
10:00 PM60 °FRefreshingly cool.9 mph55%30.29 "HgN/A
9:00 PM60 °FRefreshingly cool.8 mph51%30.29 "HgN/A
8:00 PM60 °FPassing clouds.6 mph58%30.28 "Hg25 mi
7:00 PM64 °FMild.7 mph47%30.28 "HgN/A
6:00 PM65 °FMild.7 mph48%30.28 "HgN/A
5:00 PM66 °FMild.8 mph45%30.28 "HgN/A
4:00 PM66 °FMild.10 mph43%30.29 "HgN/A
3:00 PM65 °FMild.9 mph51%30.30 "HgN/A
2:00 PM65 °FPartly sunny.9 mph50%30.31 "Hg16 mi
1:00 PM65 °FMild.8 mph54%30.32 "HgN/A
12:00 PM65 °FMild.9 mph54%30.33 "HgN/A
11:00 AM63 °FScattered clouds.9 mph58%30.33 "Hg19 mi
10:00 AM62 °FMild.7 mph61%30.34 "HgN/A
Weather by CustomWeather, © 2014

See weather overviewHow to use our weather pages